Location: Caubios
(43.4167°N, 0.4000°W)
Time: 23:03:41
(UTC+00:00)

Daily predictions for brighter satellites

Satellite Brightness Start Highest point End
(mag) Time Altitude Azimuth Time Altitude Azimuth Time Altitude Azimuth
Cosmos 2369 4.4 16:47:55 10° N 16:53:02 32° NE 16:58:08 10° ESE
Cosmos 1842 Rocket 3.7 16:50:49 10° S 16:55:16 85° W 16:59:47 10° N
USA 234 3.4 16:49:35 10° ESE 16:55:56 55° NNE 17:02:15 10° NW
CZ-4C R/B 3.6 16:50:42 10° NNW 16:56:53 32° NE 17:04:00 10° E
Cosmos 1092 Rocket 4.3 16:52:38 10° N 16:58:44 47° ENE 17:04:47 10° SSE
Cosmos 2084 3.5 16:54:39 10° NNW 16:58:57 68° NE 17:03:25 10° SE
Cosmos 1812 4.5 16:57:21 10° ESE 16:59:28 14° E 17:01:35 10° NE
NOSS 3-1 (A) 4.1 16:51:54 10° NW 16:59:29 74° NE 17:08:18 10° SE
NOSS 3-1 (C) 4.4 16:51:58 10° NW 16:59:37 77° WSW 17:08:28 10° SSE
SL-16 R/B 4.0 17:00:13 10° NNE 17:01:40 11° NE 17:03:08 10° NE
ISS -2.5 16:58:53 10° NW 17:01:49 26° NNE 17:04:45 10° ENE
Meteor 1-25 Rocket 4.3 16:58:56 10° N 17:04:25 56° ENE 17:09:54 10° SSE
SMAP 3.2 17:00:15 10° SSE 17:04:44 51° ENE 17:09:16 10° N
Cosmos 2082 Rocket 3.0 16:59:47 10° SSE 17:04:46 32° ESE 17:09:44 10° NE
Meteor PRIRODA 3.6 17:01:47 10° SSE 17:05:25 87° WSW 17:09:03 10° NNW
Cosmos 1939 Rocket 3.0 17:01:56 10° SSE 17:05:57 55° ENE 17:09:57 10° N
CORIOLIS 4.3 17:02:31 10° SE 17:07:43 52° ENE 17:12:58 10° N
NOAA 12 4.2 17:05:34 10° SSE 17:10:54 89° WSW 17:16:16 10° NNW
Cosmos 44 4.5 17:07:25 10° NW 17:11:55 45° WSW 17:16:09 10° S
CZ-4B DEB 4.4 17:08:48 10° SE 17:14:06 51° ENE 17:19:25 10° N
Cosmos 1602 3.8 17:14:07 10° N 17:17:54 52° E 17:21:40 10° SSE
AQUARIUS 4.2 17:14:14 10° SSE 17:18:38 59° ENE 17:23:04 10° N
Cosmos 540 Rocket 3.5 17:14:42 10° S 17:19:43 64° ESE 17:24:47 10° NNE
Cosmos 2034 Rocket 4.3 17:14:57 10° SSW 17:21:05 73° W 17:27:15 10° N
ARGOS 4.0 17:19:55 10° ESE 17:24:25 28° ENE 17:28:55 10° N
COSMOS 2406 3.2 17:19:35 10° SSW 17:25:20 79° ESE 17:31:05 10° NNE
Cosmos 1833 Rocket 2.8 17:21:02 10° SSW 17:26:38 79° WNW 17:32:19 10° NNE
COSMO-SKYMED 1 3.6 17:23:36 10° NE 17:27:16 26° E 17:30:54 10° SSE
Cosmos 1782 2.9 17:24:24 10° S 17:28:17 55° E 17:32:13 10° NNE
ATLAS 5 CENTAUR R/B 3.6 17:24:45 10° NW 17:31:06 22° N 17:33:09 16° NE
Meteor 2-21 4.4 17:25:13 10° N 17:31:14 61° ENE 17:37:13 10° SSE
Cosmos 1633 Rocket 3.8 17:31:56 10° NNE 17:35:48 30° ENE 17:39:39 10° SE
CZ-2D R/B 3.2 17:35:40 10° SSE 17:39:26 60° ENE 17:43:13 10° N
Cosmos 1898 Rocket 3.9 17:34:41 10° NNW 17:39:55 69° WSW 17:45:04 10° S
Cosmos 1634 Rocket 4.0 17:35:25 10° S 17:41:43 78° E 17:48:04 10° N
COSMOS 2455 2.8 17:36:33 10° SSW 17:42:33 79° ESE 17:48:14 12° NNE
PAYLOAD B 4.2 17:38:19 10° SSE 17:43:53 71° ENE 17:49:28 10° N
CZ-4B R/B 3.3 17:41:14 10° SE 17:46:28 51° ENE 17:51:38 10° N
CZ-2C R/B 2.8 17:41:49 10° NNE 17:46:49 45° E 17:51:44 10° S
Cosmos 1151 Rocket 3.2 17:43:10 10° SSE 17:47:18 48° E 17:51:27 10° NNE
Cosmos 1500 3.0 17:43:40 10° N 17:47:25 77° E 17:51:08 10° SSE
Cosmos 2026 Rocket 3.9 17:42:54 10° N 17:49:04 89° W 17:55:08 10° S
Lacrosse 5 rocket 2.6 17:47:03 10° NNW 17:50:07 21° NNE 17:50:36 21° NE
Okean O Rocket 2.0 17:46:24 10° SE 17:50:33 40° ENE 17:54:43 10° N
Meteor 2-14 Rocket 4.4 17:48:14 10° N 17:54:22 88° W 18:00:26 10° S
Cosmos 2208 Rocket 4.4 17:53:21 10° S 17:58:27 46° ESE 18:01:39 22° NE
Cosmos 1666 Rocket 3.4 17:57:18 10° N 18:01:45 69° E 18:06:07 10° SSE
NOSS 2-2 (C) 4.4 17:57:06 10° NW 18:02:29 83° NE 18:10:06 10° SE
H-2A R/B 2.0 17:57:22 10° SSE 18:02:34 88° WSW 18:07:39 10° NNW
Meteor 1-11 Rocket 4.4 17:58:49 10° N 18:03:43 30° ENE 18:05:46 24° ESE
Cosmos 1328 Rocket 3.6 18:00:31 10° S 18:04:49 53° E 18:07:30 22° NNE
Cosmos 1470 Rocket 4.1 18:00:48 10° N 18:04:55 35° ENE 18:09:01 10° SE
USA 267 3.9 18:01:03 17° NE 18:05:56 46° NNW 18:12:04 10° W
Cosmos 1655 Rocket 4.3 18:01:01 10° N 18:07:05 43° ENE 18:13:04 10° SE
USA 305 4.4 18:05:05 10° NW 18:08:22 21° N 18:08:46 21° NNE
Cosmos 2360 Rocket 4.0 18:05:31 10° N 18:07:10 14° NNE 18:07:10 14° NNE
Landsat 5 3.5 18:08:42 37° NE 18:09:52 50° E 18:13:44 10° S
Cosmos 2180 Rocket 4.4 18:07:15 10° S 18:13:31 67° E 18:19:46 10° NNE
Cosmos 841 Rocket 4.1 18:08:50 10° SW 18:13:54 56° WNW 18:18:54 10° NNE
SKYMED 2 3.5 18:12:00 16° NNE 18:15:30 86° ESE 18:19:51 10° SSW
Feng Yun 1-1 Rocket 4.5 18:10:13 10° SE 18:15:53 51° ENE 18:21:33 10° N
Cosmos 1666 2.5 18:13:09 10° N 18:16:54 87° WSW 18:20:35 10° S
Meteor 2-8 Rocket 4.3 18:11:00 10° S 18:17:06 69° E 18:23:14 10° NNE
ATLAS CENTAUR R/B 3.6 18:09:47 10° WSW 18:18:20 41° NW 18:20:44 23° NNE
Cosmos 1125 Rocket 4.1 18:18:03 10° N 18:22:14 36° NE 18:22:14 36° NE
SL-24 R/B - RUBIN 2 4.0 18:22:10 10° NW 18:26:34 60° WSW 18:30:48 10° SSE
Cosmos 2322 Rocket 3.3 18:24:13 10° N 18:27:49 27° NNE 18:27:49 27° NNE
SL-08 RB Rocket 3.6 18:29:06 10° SSE 18:33:44 78° ENE 18:38:21 10° N
Cosmos 1812 4.1 18:31:13 10° SSW 18:34:49 39° WNW 18:37:47 14° NNW
Cosmos 1980 Rocket 2.9 18:29:48 10° NNW 18:35:19 55° WSW 18:40:46 10° S
ISS -2.7 18:35:31 10° WNW 18:37:59 44° WNW 18:37:59 44° WNW
USA 234 4.0 18:32:37 10° SSE 18:38:57 52° SW 18:45:19 10° WNW
deb Chang Zheng 4 4.4 18:35:38 10° S 18:39:49 51° W 18:44:03 10° NNW
CZ-4C R/B 3.1 18:38:48 10° NW 18:46:13 82° WSW 18:54:47 10° SSE
Cosmos 1515 Rocket 3.9 18:42:36 10° S 18:46:04 54° S 18:46:04 54° S
SL-16 R/B 2.5 18:41:35 10° NNW 18:46:11 47° NNE 18:46:11 47° NNE
Cosmos 2082 Rocket 3.4 18:43:24 10° SW 18:48:43 40° WNW 18:52:36 17° N
Cosmos 44 Rocket 3.5 18:49:07 10° NNW 18:53:09 59° NNW 18:53:09 59° NNW
Cosmos 2333 Rocket 4.5 18:54:05 10° N 18:54:26 11° N 18:54:26 11° N
COSMO-SKYMED 1 4.4 19:00:37 15° NNW 19:03:24 30° WNW 19:07:10 10° SW
ARGOS 4.3 18:59:21 10° S 19:04:28 42° W 19:09:36 10° NNW
Meteor 1-27 Rocket 4.2 19:02:45 10° S 19:06:41 48° S 19:06:41 48° S
DMSP B5D2-2 4.3 19:10:16 66° SW 19:10:16 66° SW 19:14:46 10° SSW
Cosmos 2298 Rocket 4.2 19:04:34 10° NNW 19:09:28 70° WNW 19:09:28 70° WNW
Cosmos 921 Rocket 4.2 19:06:35 10° SW 19:09:34 38° WSW 19:09:34 38° WSW
CZ-2C R/B 3.8 19:08:26 10° SW 19:09:35 15° SSW 19:09:35 15° SSW
Cosmos 2266 Rocket 4.4 19:09:52 10° NNW 19:16:10 63° W 19:22:28 10° S
GEOS 3 Rocket 4.2 19:19:06 52° NW 19:19:06 52° NW 19:23:00 10° NW
Cosmos 1818 4.0 19:14:37 10° NW 19:19:32 60° W 19:19:32 60° W
Okean O Rocket 4.1 19:23:42 10° SW 19:27:02 21° W 19:30:23 10° NW
Lacrosse 5 rocket 4.0 19:25:35 10° NW 19:26:13 14° NW 19:26:13 14° NW
BREEZE-M DEB (TANK) 4.2 19:21:01 10° SW 19:44:37 84° NW 19:44:57 81° N
Cosmos 2360 Rocket 4.5 19:48:03 10° NNW 19:48:57 15° NNW 19:48:57 15° NNW
Cosmos 2322 Rocket 4.4 20:08:05 10° NW 20:09:40 19° NW 20:09:40 19° NW
